MPH51R EHAM-GCTS

Flight info

Callsign MPH51R
Flight time N/A
Altitude 31000
Route WOODY N872 DENOX/N0477F330 N872 CIV DCT KOVIN DCT NIDUV DCT KIHVI DCT PON DCT DITAL DCT GODIX DCT DIDAK DCT KURIS DCT TERPO DCT ERIGA DCT FUJTI DCT ATLEN DCT ABUPI DCT BEXAL/N0474F350 UN866 KONBA
Aircraft MD11/H-SDE1E2E3FGHIJ2J3J4J5M1RWXY/LB1D1

Departure

Time 2026-04-28 13:41
Airport Amsterdam Airport Schiphol (EHAM)

Arrival

Time N/A
Airport Tenerife Sur Airport (GCTS)
Time Latitude Longitude Altitude Speed Heading
2026-04-28 13:15 52.29410 4.75916 3 ft 0 kts 148°
2026-04-28 13:28 52.29417 4.75908 3 ft 2 kts 148°
2026-04-28 13:28 52.29430 4.75896 3 ft 2 kts 148°
2026-04-28 13:29 52.29443 4.75882 3 ft 2 kts 148°
2026-04-28 13:29 52.29456 4.75869 3 ft 2 kts 148°
2026-04-28 13:29 52.29468 4.75856 3 ft 2 kts 148°
2026-04-28 13:29 52.29481 4.75844 3 ft 2 kts 163°
2026-04-28 13:30 52.29495 4.75844 3 ft 2 kts 201°
2026-04-28 13:30 52.29507 4.75857 3 ft 2 kts 234°
2026-04-28 13:30 52.29511 4.75870 3 ft 1 kts 254°
2026-04-28 13:30 52.29512 4.75875 3 ft 0 kts 253°
2026-04-28 13:32 52.29512 4.75874 3 ft 0 kts 253°
2026-04-28 13:33 52.29504 4.75835 3 ft 7 kts 251°
2026-04-28 13:33 52.29467 4.75706 3 ft 16 kts 241°
2026-04-28 13:33 52.29441 4.75625 3 ft 3 kts 247°
2026-04-28 13:33 52.29440 4.75622 3 ft 0 kts 247°
2026-04-28 13:34 52.29440 4.75619 3 ft 1 kts 249°
2026-04-28 13:34 52.29440 4.75579 3 ft 5 kts 291°
2026-04-28 13:34 52.29485 4.75506 3 ft 16 kts 327°
2026-04-28 13:34 52.29611 4.75373 3 ft 24 kts 327°
2026-04-28 13:35 52.29741 4.75268 3 ft 17 kts 353°
2026-04-28 13:35 52.29837 4.75204 3 ft 13 kts 311°
2026-04-28 13:35 52.29900 4.75087 3 ft 14 kts 311°
2026-04-28 13:35 52.29974 4.74948 3 ft 18 kts 311°
2026-04-28 13:36 52.30069 4.74771 3 ft 21 kts 311°
2026-04-28 13:36 52.30168 4.74587 3 ft 22 kts 311°
2026-04-28 13:36 52.30273 4.74392 3 ft 23 kts 311°
2026-04-28 13:36 52.30387 4.74212 3 ft 22 kts 334°
2026-04-28 13:37 52.30546 4.74201 3 ft 23 kts
2026-04-28 13:37 52.30714 4.74215 3 ft 26 kts
2026-04-28 13:37 52.30901 4.74233 3 ft 27 kts
2026-04-28 13:37 52.31097 4.74252 3 ft 28 kts
2026-04-28 13:38 52.31249 4.74266 3 ft 18 kts
2026-04-28 13:38 52.31355 4.74285 3 ft 13 kts 26°
2026-04-28 13:38 52.31393 4.74422 3 ft 14 kts 84°
2026-04-28 13:38 52.31401 4.74585 3 ft 14 kts 80°
2026-04-28 13:39 52.31470 4.74667 3 ft 12 kts 359°
2026-04-28 13:39 52.31535 4.74660 3 ft 2 kts 356°
2026-04-28 13:39 52.31538 4.74660 3 ft 0 kts 356°
2026-04-28 13:39 52.31572 4.74657 3 ft 10 kts 358°
2026-04-28 13:40 52.31656 4.74716 3 ft 15 kts 58°
2026-04-28 13:40 52.31668 4.74786 3 ft 0 kts 87°
2026-04-28 13:40 52.31674 4.74948 3 ft 46 kts 87°
2026-04-28 13:40 52.31706 4.75901 3 ft 121 kts 86°
2026-04-28 13:41 52.31764 4.77610 7 ft 183 kts 85°
2026-04-28 13:41 52.31839 4.79679 796 ft 181 kts 85°
2026-04-28 13:41 52.31541 4.81472 1803 ft 179 kts 123°
2026-04-28 13:41 52.30597 4.82569 2657 ft 186 kts 147°
2026-04-28 13:42 52.29356 4.83329 3320 ft 196 kts 151°
2026-04-28 13:42 52.27965 4.84234 3872 ft 212 kts 151°
2026-04-28 13:42 52.26424 4.84802 4231 ft 244 kts 170°
2026-04-28 13:42 52.24741 4.84887 5149 ft 244 kts 175°
2026-04-28 13:43 52.23067 4.84830 6026 ft 248 kts 177°
2026-04-28 13:43 52.21397 4.84750 7204 ft 238 kts 176°
2026-04-28 13:43 52.19764 4.84700 8055 ft 245 kts 176°
2026-04-28 13:43 52.18028 4.84674 8485 ft 271 kts 176°
2026-04-28 13:44 52.16098 4.84643 9267 ft 283 kts 177°
2026-04-28 13:44 52.14120 4.84598 10305 ft 288 kts 177°
2026-04-28 13:44 52.12165 4.84551 11400 ft 288 kts 178°
2026-04-28 13:44 52.10159 4.84511 12290 ft 297 kts 178°
2026-04-28 13:45 52.08118 4.84467 12510 ft 327 kts 178°
2026-04-28 13:45 52.05735 4.84399 12852 ft 354 kts 179°
2026-04-28 13:45 52.03237 4.84152 13152 ft 382 kts 186°
2026-04-28 13:45 52.00568 4.83120 13545 ft 407 kts 198°
2026-04-28 13:46 51.98789 4.81920 13989 ft 417 kts 204°